�N����,�ō��C����30���i�^�ē��j,�ō��C����35���i�ҏ����j
2021/5/1,1,0
2021/5/2,0,0
2021/5/3,0,0
2021/5/4,0,0
2021/5/5,0,0
2021/5/6,0,0
2021/5/7,2,0
2021/5/8,1,0
2021/5/9,11,0
2021/5/10,11,0
2021/5/11,7,0
2021/5/12,11,0
2021/5/13,13,0
2021/5/14,46,0
2021/5/15,40,0
2021/5/16,44,0
2021/5/17,23,0
2021/5/18,24,0
2021/5/19,20,0
2021/5/20,22,0
2021/5/21,21,0
2021/5/22,15,0
2021/5/23,51,0
2021/5/24,25,0
2021/5/25,15,0
2021/5/26,20,0
2021/5/27,26,0
2021/5/28,17,0
2021/5/29,13,0
2021/5/30,19,0
2021/5/31,39,0
2021/6/1,76,0
2021/6/2,15,0
2021/6/3,43,0
2021/6/4,25,0
2021/6/5,10,0
2021/6/6,13,0
2021/6/7,145,0
2021/6/8,234,0
2021/6/9,260,3
2021/6/10,324,0
2021/6/11,195,0
2021/6/12,47,0
2021/6/13,42,0
2021/6/14,64,0
2021/6/15,72,0
2021/6/16,30,0
2021/6/17,36,0
2021/6/18,22,0
2021/6/19,47,0
2021/6/20,96,0
2021/6/21,182,0
2021/6/22,30,0
2021/6/23,59,0
2021/6/24,51,0
2021/6/25,62,0
2021/6/26,62,0
2021/6/27,82,0
2021/6/28,101,0
2021/6/29,135,0
2021/6/30,147,0
2021/7/1,134,1
2021/7/2,193,0
2021/7/3,168,0
2021/7/4,246,0
2021/7/5,248,9
2021/7/6,248,0
2021/7/7,232,1
2021/7/8,122,1
2021/7/9,130,1
2021/7/10,249,1
2021/7/11,369,1
2021/7/12,298,1
2021/7/13,364,4
2021/7/14,416,3
2021/7/15,403,1
2021/7/16,483,2
2021/7/17,575,41
2021/7/18,644,77
2021/7/19,767,117
2021/7/20,737,118
2021/7/21,672,66
2021/7/22,577,30
2021/7/23,620,26
2021/7/24,668,50
2021/7/25,675,33
2021/7/26,617,58
2021/7/27,500,60
2021/7/28,619,71
2021/7/29,679,45
2021/7/30,677,68
2021/7/31,724,72
2021/8/1,649,42
2021/8/2,720,87
2021/8/3,768,109
2021/8/4,808,185
2021/8/5,833,242
2021/8/6,816,225
2021/8/7,769,192
2021/8/8,580,106
2021/8/9,355,17
2021/8/10,409,49
2021/8/11,209,2
2021/8/12,43,0
2021/8/13,24,0
2021/8/14,38,0
2021/8/15,52,0
2021/8/16,38,0
2021/8/17,36,0
2021/8/18,105,0
2021/8/19,301,2
2021/8/20,329,5
2021/8/21,327,0
2021/8/22,391,1
2021/8/23,405,0
2021/8/24,274,0
2021/8/25,470,11
2021/8/26,600,47
2021/8/27,583,43
2021/8/28,586,62
2021/8/29,533,31
2021/8/30,509,49
2021/8/31,423,15
2021/9/1,275,0
2021/9/2,123,0
2021/9/3,66,0
2021/9/4,135,0
2021/9/5,104,0
2021/9/6,153,0
2021/9/7,111,0
2021/9/8,95,0
2021/9/9,187,0
2021/9/10,242,0
2021/9/11,75,0
2021/9/12,42,0
2021/9/13,78,0
2021/9/14,32,0
2021/9/15,82,0
2021/9/16,94,0
2021/9/17,60,0
2021/9/18,121,0
2021/9/19,114,0
2021/9/20,128,0
2021/9/21,204,0
2021/9/22,191,0
2021/9/23,235,0
2021/9/24,74,0
2021/9/25,64,0
2021/9/26,73,0
2021/9/27,69,0
2021/9/28,68,0
2021/9/29,137,0
2021/9/30,142,0
2021/10/1,103,0
2021/10/2,105,0
2021/10/3,150,1
2021/10/4,166,0
2021/10/5,134,0
2021/10/6,110,0
2021/10/7,78,0
2021/10/8,129,0
2021/10/9,134,0
2021/10/10,177,0
2021/10/11,120,0
2021/10/12,64,0
2021/10/13,54,0
2021/10/14,51,0
2021/10/15,32,0
2021/10/16,39,0
2021/10/17,2,0
2021/10/18,0,0
2021/10/19,0,0
2021/10/20,0,0
2021/10/21,0,0
2021/10/22,0,0
2021/10/23,0,0
2021/10/24,0,0
2021/10/25,0,0
2021/10/26,0,0
2021/10/27,0,0
2021/10/28,0,0
2021/10/29,0,0
2021/10/30,0,0
2021/10/31,0,0
